Time,TemperatureF,DewpointF,PressureIn,WindDirection,WindDirectionDegrees,WindSpeedMPH,WindSpeedGustMPH,Humidity,HourlyPrecipIn,Conditions,Clouds,dailyrainin,SoftwareType,DateUTC
2013-05-29 00:05:00,75.3,69.8,30.15,East,80,0.0,0.0,83,0.00,,,0.00,Wunderground v.1.15,2013-05-29 04:05:00,
2013-05-29 00:10:00,75.2,69.7,30.16,East,80,0.0,0.0,83,0.00,,,0.00,Wunderground v.1.15,2013-05-29 04:10:00,
2013-05-29 00:15:00,75.1,69.9,30.15,East,80,0.0,0.0,84,0.00,,,0.00,Wunderground v.1.15,2013-05-29 04:15:00,
2013-05-29 00:20:00,75.1,69.9,30.15,East,82,0.0,0.0,84,0.00,,,0.00,Wunderground v.1.15,2013-05-29 04:20:00,
2013-05-29 00:30:00,75.0,69.8,30.15,East,82,0.0,0.0,84,0.00,,,0.00,Wunderground v.1.15,2013-05-29 04:30:00,
2013-05-29 00:35:00,75.0,69.8,30.15,East,82,0.0,0.0,84,0.00,,,0.00,Wunderground v.1.15,2013-05-29 04:35:00,
2013-05-29 00:40:00,75.0,70.2,30.15,East,91,0.0,0.0,85,0.00,,,0.00,Wunderground v.1.15,2013-05-29 04:40:00,
2013-05-29 00:50:00,74.9,70.1,30.15,East,98,0.0,0.0,85,0.00,,,0.00,Wunderground v.1.15,2013-05-29 04:50:00,
2013-05-29 01:00:00,74.9,70.1,30.14,East,99,0.0,0.0,85,0.00,,,0.00,Wunderground v.1.15,2013-05-29 05:00:00,
2013-05-29 01:05:00,74.8,70.0,30.14,East,100,0.0,0.0,85,0.00,,,0.00,Wunderground v.1.15,2013-05-29 05:05:00,
2013-05-29 01:10:00,74.8,70.0,30.14,East,100,0.0,0.0,85,0.00,,,0.00,Wunderground v.1.15,2013-05-29 05:10:00,
2013-05-29 01:20:00,74.8,70.0,30.14,East,100,0.0,0.0,85,0.00,,,0.00,Wunderground v.1.15,2013-05-29 05:20:00,
2013-05-29 01:30:00,74.7,70.2,30.13,East,100,0.0,0.0,86,0.00,,,0.00,Wunderground v.1.15,2013-05-29 05:30:00,
2013-05-29 01:35:00,74.6,69.8,30.13,East,100,0.0,0.0,85,0.00,,,0.00,Wunderground v.1.15,2013-05-29 05:35:00,
2013-05-29 01:40:00,74.5,69.7,30.13,East,100,0.0,0.0,85,0.00,,,0.00,Wunderground v.1.15,2013-05-29 05:40:00,
2013-05-29 01:50:00,74.4,69.9,30.12,East,99,0.0,0.0,86,0.00,,,0.00,Wunderground v.1.15,2013-05-29 05:50:00,
2013-05-29 02:00:00,74.3,69.8,30.12,East,99,0.0,0.0,86,0.00,,,0.00,Wunderground v.1.15,2013-05-29 06:00:00,
2013-05-29 02:05:00,74.2,69.7,30.12,East,99,0.0,0.0,86,0.00,,,0.00,Wunderground v.1.15,2013-05-29 06:05:00,
2013-05-29 02:15:00,74.0,69.9,30.12,East,99,0.0,0.0,87,0.00,,,0.00,Wunderground v.1.15,2013-05-29 06:15:00,
2013-05-29 02:25:00,74.0,69.9,30.12,East,99,0.0,0.0,87,0.00,,,0.00,Wunderground v.1.15,2013-05-29 06:25:00,
2013-05-29 02:35:00,73.8,69.7,30.11,East,99,0.0,0.0,87,0.00,,,0.00,Wunderground v.1.15,2013-05-29 06:35:00,
2013-05-29 02:45:00,73.6,69.5,30.11,East,99,0.0,0.0,87,0.00,,,0.00,Wunderground v.1.15,2013-05-29 06:45:00,
2013-05-29 02:55:00,73.4,69.6,30.10,East,99,0.0,0.0,88,0.00,,,0.00,Wunderground v.1.15,2013-05-29 06:55:00,
2013-05-29 03:05:00,73.3,69.5,30.10,East,99,0.0,0.0,88,0.00,,,0.00,Wunderground v.1.15,2013-05-29 07:05:00,
2013-05-29 03:15:00,73.0,69.2,30.10,East,99,0.0,0.0,88,0.00,,,0.00,Wunderground v.1.15,2013-05-29 07:15:00,
2013-05-29 03:25:00,72.9,69.1,30.10,East,99,0.0,0.0,88,0.00,,,0.00,Wunderground v.1.15,2013-05-29 07:25:00,
2013-05-29 03:30:00,72.8,69.0,30.10,East,99,0.0,0.0,88,0.00,,,0.00,Wunderground v.1.15,2013-05-29 07:30:00,
2013-05-29 03:35:00,72.8,69.0,30.10,East,99,0.0,0.0,88,0.00,,,0.00,Wunderground v.1.15,2013-05-29 07:35:00,
2013-05-29 03:45:00,72.8,69.4,30.10,East,99,0.0,0.0,89,0.00,,,0.00,Wunderground v.1.15,2013-05-29 07:45:00,
2013-05-29 03:50:00,72.7,69.3,30.10,East,99,0.0,0.0,89,0.00,,,0.00,Wunderground v.1.15,2013-05-29 07:50:00,
2013-05-29 04:00:00,72.6,69.2,30.10,East,99,0.0,0.0,89,0.00,,,0.00,Wunderground v.1.15,2013-05-29 08:00:00,
2013-05-29 04:05:00,72.6,69.2,30.10,East,99,0.0,0.0,89,0.00,,,0.00,Wunderground v.1.15,2013-05-29 08:05:00,
2013-05-29 04:15:00,72.3,68.9,30.10,East,99,0.0,0.0,89,0.00,,,0.00,Wunderground v.1.15,2013-05-29 08:15:00,
2013-05-29 04:20:00,72.2,68.8,30.10,East,99,0.0,0.0,89,0.00,,,0.00,Wunderground v.1.15,2013-05-29 08:20:00,
2013-05-29 04:30:00,72.1,68.7,30.09,East,99,0.0,0.0,89,0.00,,,0.00,Wunderground v.1.15,2013-05-29 08:30:00,
2013-05-29 04:35:00,72.1,69.0,30.09,East,99,0.0,0.0,90,0.00,,,0.00,Wunderground v.1.15,2013-05-29 08:35:00,
2013-05-29 04:45:00,72.3,69.2,30.09,East,99,0.0,0.0,90,0.00,,,0.00,Wunderground v.1.15,2013-05-29 08:45:00,
2013-05-29 04:50:00,72.5,69.4,30.10,East,99,0.0,0.0,90,0.00,,,0.00,Wunderground v.1.15,2013-05-29 08:50:00,
2013-05-29 04:55:00,72.6,69.5,30.09,East,99,0.0,0.0,90,0.00,,,0.00,Wunderground v.1.15,2013-05-29 08:55:00,
2013-05-29 05:05:00,72.8,69.7,30.09,East,99,0.0,0.0,90,0.00,,,0.00,Wunderground v.1.15,2013-05-29 09:05:00,
2013-05-29 05:15:00,72.9,69.5,30.09,East,99,0.0,0.0,89,0.00,,,0.00,Wunderground v.1.15,2013-05-29 09:15:00,
2013-05-29 05:25:00,73.1,70.0,30.09,East,99,0.0,0.0,90,0.00,,,0.00,Wunderground v.1.15,2013-05-29 09:25:00,
2013-05-29 05:35:00,73.3,70.2,30.09,East,99,0.0,0.0,90,0.00,,,0.00,Wunderground v.1.15,2013-05-29 09:35:00,
2013-05-29 05:45:00,73.4,70.3,30.09,East,99,0.0,0.0,90,0.00,,,0.00,Wunderground v.1.15,2013-05-29 09:45:00,
2013-05-29 05:55:00,73.3,69.9,30.09,East,99,0.0,0.0,89,0.00,,,0.00,Wunderground v.1.15,2013-05-29 09:55:00,
2013-05-29 06:05:00,73.2,69.8,30.10,East,99,0.0,0.0,89,0.00,,,0.00,Wunderground v.1.15,2013-05-29 10:05:00,
2013-05-29 06:15:00,73.1,70.0,30.10,East,99,0.0,0.0,90,0.00,,,0.00,Wunderground v.1.15,2013-05-29 10:15:00,
2013-05-29 06:25:00,73.1,70.0,30.10,East,99,0.0,0.0,90,0.00,,,0.00,Wunderground v.1.15,2013-05-29 10:25:00,
2013-05-29 06:30:00,73.1,70.0,30.10,East,99,0.0,0.0,90,0.00,,,0.00,Wunderground v.1.15,2013-05-29 10:30:00,
2013-05-29 06:40:00,73.0,69.9,30.11,East,99,0.0,0.0,90,0.00,,,0.00,Wunderground v.1.15,2013-05-29 10:40:00,
2013-05-29 06:50:00,73.0,69.9,30.11,East,99,0.0,0.0,90,0.00,,,0.00,Wunderground v.1.15,2013-05-29 10:50:00,
2013-05-29 07:00:00,73.1,70.0,30.12,East,99,0.0,0.0,90,0.00,,,0.00,Wunderground v.1.15,2013-05-29 11:00:00,
2013-05-29 07:10:00,73.3,70.2,30.12,East,99,0.0,0.0,90,0.00,,,0.00,Wunderground v.1.15,2013-05-29 11:10:00,
2013-05-29 07:20:00,73.5,70.4,30.13,East,98,0.0,0.0,90,0.00,,,0.00,Wunderground v.1.15,2013-05-29 11:20:00,
2013-05-29 07:30:00,73.7,70.6,30.13,East,98,0.0,0.0,90,0.00,,,0.00,Wunderground v.1.15,2013-05-29 11:30:00,
2013-05-29 07:40:00,74.1,71.0,30.14,East,99,0.0,0.0,90,0.00,,,0.00,Wunderground v.1.15,2013-05-29 11:40:00,
2013-05-29 07:50:00,74.7,71.6,30.14,ESE,104,0.0,0.0,90,0.00,,,0.00,Wunderground v.1.15,2013-05-29 11:50:00,
2013-05-29 08:00:00,75.5,71.7,30.14,ESE,107,0.0,0.0,88,0.00,,,0.00,Wunderground v.1.15,2013-05-29 12:00:00,
2013-05-29 08:10:00,75.9,71.8,30.14,ESE,107,0.0,0.0,87,0.00,,,0.00,Wunderground v.1.15,2013-05-29 12:10:00,
2013-05-29 08:20:00,76.0,71.8,30.15,ESE,107,0.0,0.0,87,0.00,,,0.00,Wunderground v.1.15,2013-05-29 12:20:00,
2013-05-29 08:30:00,76.6,72.4,30.15,ESE,107,0.0,0.0,87,0.00,,,0.00,Wunderground v.1.15,2013-05-29 12:30:00,
2013-05-29 08:40:00,77.5,72.6,30.15,ESE,110,0.0,0.0,85,0.00,,,0.00,Wunderground v.1.15,2013-05-29 12:40:00,
2013-05-29 08:50:00,78.3,73.1,30.15,ESE,110,0.0,0.0,84,0.00,,,0.00,Wunderground v.1.15,2013-05-29 12:50:00,
2013-05-29 09:00:00,79.0,73.0,30.15,ESE,110,0.0,0.0,82,0.00,,,0.00,Wunderground v.1.15,2013-05-29 13:00:00,
2013-05-29 09:10:00,79.6,73.6,30.15,ESE,110,0.0,0.0,82,0.00,,,0.00,Wunderground v.1.15,2013-05-29 13:10:00,
2013-05-29 09:15:00,79.8,73.8,30.15,ESE,110,0.0,0.0,82,0.00,,,0.00,Wunderground v.1.15,2013-05-29 13:15:00,
2013-05-29 09:20:00,80.5,73.8,30.15,ESE,110,0.0,0.0,80,0.00,,,0.00,Wunderground v.1.15,2013-05-29 13:20:00,
2013-05-29 09:30:00,81.2,73.7,30.15,West,276,0.0,0.0,78,0.00,,,0.00,Wunderground v.1.15,2013-05-29 13:30:00,
2013-05-29 09:35:00,81.3,73.8,30.15,NE,40,0.0,0.0,78,0.00,,,0.00,Wunderground v.1.15,2013-05-29 13:35:00,
2013-05-29 09:45:00,81.7,73.4,30.15,NE,42,0.0,0.0,76,0.00,,,0.00,Wunderground v.1.15,2013-05-29 13:45:00,
2013-05-29 09:50:00,81.8,73.9,30.16,NE,43,0.0,0.0,77,0.00,,,0.00,Wunderground v.1.15,2013-05-29 13:50:00,
2013-05-29 10:00:00,82.2,74.3,30.15,NE,43,0.0,0.0,77,0.00,,,0.00,Wunderground v.1.15,2013-05-29 14:00:00,
2013-05-29 10:05:00,82.5,73.8,30.15,NE,44,0.0,0.0,75,0.00,,,0.00,Wunderground v.1.15,2013-05-29 14:05:00,
2013-05-29 10:15:00,82.5,73.4,30.15,NE,48,0.0,0.0,74,0.00,,,0.00,Wunderground v.1.15,2013-05-29 14:15:00,
2013-05-29 10:25:00,82.7,74.4,30.15,NE,55,0.0,0.0,76,0.00,,,0.00,Wunderground v.1.15,2013-05-29 14:25:00,
2013-05-29 10:35:00,83.5,73.5,30.15,NE,56,0.0,0.0,72,0.00,,,0.00,Wunderground v.1.15,2013-05-29 14:35:00,
2013-05-29 10:45:00,83.8,73.8,30.15,ESE,104,0.0,0.0,72,0.00,,,0.00,Wunderground v.1.15,2013-05-29 14:45:00,
2013-05-29 10:55:00,84.1,73.7,30.15,ESE,104,0.0,0.0,71,0.00,,,0.00,Wunderground v.1.15,2013-05-29 14:55:00,
2013-05-29 11:05:00,84.1,74.1,30.15,ENE,75,0.0,0.0,72,0.00,,,0.00,Wunderground v.1.15,2013-05-29 15:05:00,
2013-05-29 11:15:00,84.3,73.9,30.15,ENE,75,0.0,0.0,71,0.00,,,0.00,Wunderground v.1.15,2013-05-29 15:15:00,
2013-05-29 11:25:00,85.0,74.5,30.16,ENE,75,0.0,0.0,71,0.00,,,0.00,Wunderground v.1.15,2013-05-29 15:25:00,
2013-05-29 11:35:00,85.2,73.9,30.16,ENE,76,0.0,0.0,69,0.00,,,0.00,Wunderground v.1.15,2013-05-29 15:35:00,
2013-05-29 11:45:00,85.5,74.2,30.16,ENE,76,0.0,0.0,69,0.00,,,0.00,Wunderground v.1.15,2013-05-29 15:45:00,
2013-05-29 11:55:00,86.3,74.0,30.16,ENE,77,0.0,0.0,67,0.00,,,0.00,Wunderground v.1.15,2013-05-29 15:55:00,
2013-05-29 12:05:00,86.9,74.6,30.16,ENE,77,0.0,0.0,67,0.00,,,0.00,Wunderground v.1.15,2013-05-29 16:05:00,
2013-05-29 12:15:00,86.8,74.5,30.16,ESE,103,0.0,0.0,67,0.00,,,0.00,Wunderground v.1.15,2013-05-29 16:15:00,
2013-05-29 12:25:00,87.1,73.9,30.16,East,99,0.0,0.0,65,0.00,,,0.00,Wunderground v.1.15,2013-05-29 16:25:00,
2013-05-29 12:35:00,87.7,74.5,30.15,East,98,0.0,0.0,65,0.00,,,0.00,Wunderground v.1.15,2013-05-29 16:35:00,
2013-05-29 12:45:00,87.8,74.1,30.15,ENE,76,0.0,0.0,64,0.00,,,0.00,Wunderground v.1.15,2013-05-29 16:45:00,
2013-05-29 12:55:00,87.9,75.1,30.15,ENE,78,0.0,0.0,66,0.00,,,0.00,Wunderground v.1.15,2013-05-29 16:55:00,
2013-05-29 13:05:00,88.2,74.0,30.15,ENE,78,0.0,0.0,63,0.00,,,0.00,Wunderground v.1.15,2013-05-29 17:05:00,
2013-05-29 13:15:00,87.7,73.1,30.15,ENE,78,0.0,0.0,62,0.00,,,0.00,Wunderground v.1.15,2013-05-29 17:15:00,
2013-05-29 13:25:00,87.5,74.3,30.14,ENE,78,0.0,1.0,65,0.00,,,0.00,Wunderground v.1.15,2013-05-29 17:25:00,
2013-05-29 13:35:00,87.6,74.4,30.14,East,84,1.0,2.0,65,0.00,,,0.00,Wunderground v.1.15,2013-05-29 17:35:00,
2013-05-29 13:45:00,87.1,73.9,30.14,NE,55,1.0,1.0,65,0.00,,,0.00,Wunderground v.1.15,2013-05-29 17:45:00,
2013-05-29 13:55:00,87.2,75.3,30.14,East,96,1.0,2.0,68,0.00,,,0.00,Wunderground v.1.15,2013-05-29 17:55:00,
2013-05-29 14:05:00,85.5,73.3,30.14,ESE,105,2.0,2.0,67,0.00,,,0.00,Wunderground v.1.15,2013-05-29 18:05:00,
2013-05-29 14:15:00,84.7,73.8,30.14,East,96,2.0,3.0,70,0.00,,,0.00,Wunderground v.1.15,2013-05-29 18:15:00,
2013-05-29 14:20:00,85.1,75.1,30.14,East,96,2.0,2.0,72,0.00,,,0.00,Wunderground v.1.15,2013-05-29 18:20:00,
2013-05-29 14:30:00,86.1,75.2,30.14,East,96,1.0,1.0,70,0.00,,,0.00,Wunderground v.1.15,2013-05-29 18:30:00,
2013-05-29 14:35:00,86.1,75.6,30.14,East,98,0.0,1.0,71,0.00,,,0.00,Wunderground v.1.15,2013-05-29 18:35:00,
2013-05-29 14:45:00,86.4,74.6,30.13,ESE,105,1.0,2.0,68,0.00,,,0.00,Wunderground v.1.15,2013-05-29 18:45:00,
2013-05-29 14:50:00,86.3,74.0,30.13,ESE,117,1.0,1.0,67,0.00,,,0.00,Wunderground v.1.15,2013-05-29 18:50:00,
2013-05-29 15:00:00,86.3,73.6,30.13,ESE,115,1.0,2.0,66,0.00,,,0.00,Wunderground v.1.15,2013-05-29 19:00:00,
2013-05-29 15:05:00,86.4,74.1,30.12,ESE,115,1.0,2.0,67,0.00,,,0.00,Wunderground v.1.15,2013-05-29 19:05:00,
2013-05-29 15:15:00,87.2,74.5,30.12,ESE,115,2.0,2.0,66,0.00,,,0.00,Wunderground v.1.15,2013-05-29 19:15:00,
2013-05-29 15:20:00,87.6,74.8,30.12,ESE,105,2.0,3.0,66,0.00,,,0.00,Wunderground v.1.15,2013-05-29 19:20:00,
2013-05-29 15:30:00,87.4,75.1,30.12,ESE,105,2.0,2.0,67,0.00,,,0.00,Wunderground v.1.15,2013-05-29 19:30:00,
2013-05-29 15:35:00,87.1,74.4,30.11,ESE,106,2.0,2.0,66,0.00,,,0.00,Wunderground v.1.15,2013-05-29 19:35:00,
2013-05-29 15:45:00,86.9,74.2,30.11,ESE,106,2.0,2.0,66,0.00,,,0.00,Wunderground v.1.15,2013-05-29 19:45:00,
2013-05-29 15:50:00,87.1,74.8,30.11,ESE,105,2.0,2.0,67,0.00,,,0.00,Wunderground v.1.15,2013-05-29 19:50:00,
2013-05-29 16:00:00,87.6,74.4,30.11,ESE,105,1.0,1.0,65,0.00,,,0.00,Wunderground v.1.15,2013-05-29 20:00:00,
2013-05-29 16:05:00,87.4,74.6,30.11,ESE,105,0.0,1.0,66,0.00,,,0.00,Wunderground v.1.15,2013-05-29 20:05:00,
2013-05-29 16:15:00,87.1,74.8,30.10,ESE,105,0.0,0.0,67,0.00,,,0.00,Wunderground v.1.15,2013-05-29 20:15:00,
2013-05-29 16:25:00,86.6,73.9,30.11,ESE,113,0.0,1.0,66,0.00,,,0.00,Wunderground v.1.15,2013-05-29 20:25:00,
2013-05-29 16:35:00,86.4,74.1,30.10,ESE,113,2.0,2.0,67,0.00,,,0.00,Wunderground v.1.15,2013-05-29 20:35:00,
2013-05-29 16:45:00,86.7,74.4,30.10,ESE,113,0.0,1.0,67,0.00,,,0.00,Wunderground v.1.15,2013-05-29 20:45:00,
2013-05-29 16:55:00,87.0,73.8,30.10,ESE,113,0.0,0.0,65,0.00,,,0.00,Wunderground v.1.15,2013-05-29 20:55:00,
2013-05-29 17:05:00,86.7,74.0,30.10,ESE,113,0.0,0.0,66,0.00,,,0.00,Wunderground v.1.15,2013-05-29 21:05:00,
2013-05-29 17:15:00,86.5,74.7,30.10,ESE,107,0.0,0.0,68,0.00,,,0.00,Wunderground v.1.15,2013-05-29 21:15:00,
2013-05-29 17:25:00,86.0,73.8,30.10,ESE,107,0.0,0.0,67,0.00,,,0.00,Wunderground v.1.15,2013-05-29 21:25:00,
2013-05-29 17:35:00,85.5,74.2,30.11,ESE,107,0.0,0.0,69,0.00,,,0.00,Wunderground v.1.15,2013-05-29 21:35:00,
2013-05-29 17:45:00,85.4,74.1,30.10,ESE,107,0.0,0.0,69,0.00,,,0.00,Wunderground v.1.15,2013-05-29 21:45:00,
2013-05-29 17:55:00,84.8,74.3,30.10,ESE,106,1.0,1.0,71,0.00,,,0.00,Wunderground v.1.15,2013-05-29 21:55:00,
2013-05-29 18:05:00,83.8,73.8,30.10,ESE,105,1.0,1.0,72,0.00,,,0.00,Wunderground v.1.15,2013-05-29 22:05:00,
2013-05-29 18:15:00,83.4,73.8,30.10,ESE,105,1.0,1.0,73,0.00,,,0.00,Wunderground v.1.15,2013-05-29 22:15:00,
2013-05-29 18:25:00,83.2,73.6,30.10,ESE,105,0.0,0.0,73,0.00,,,0.00,Wunderground v.1.15,2013-05-29 22:25:00,
2013-05-29 18:35:00,82.7,74.0,30.10,ESE,105,0.0,0.0,75,0.00,,,0.00,Wunderground v.1.15,2013-05-29 22:35:00,
2013-05-29 18:45:00,82.5,73.4,30.10,ESE,105,0.0,0.0,74,0.00,,,0.00,Wunderground v.1.15,2013-05-29 22:45:00,
2013-05-29 18:55:00,82.8,74.1,30.10,ESE,104,0.0,0.0,75,0.00,,,0.00,Wunderground v.1.15,2013-05-29 22:55:00,
2013-05-29 19:05:00,82.2,73.5,30.10,ESE,103,1.0,1.0,75,0.00,,,0.00,Wunderground v.1.15,2013-05-29 23:05:00,
2013-05-29 19:10:00,81.8,73.5,30.10,ESE,103,1.0,1.0,76,0.00,,,0.00,Wunderground v.1.15,2013-05-29 23:10:00,
2013-05-29 19:20:00,81.4,73.5,30.10,ESE,103,0.0,0.0,77,0.00,,,0.00,Wunderground v.1.15,2013-05-29 23:20:00,
2013-05-29 19:25:00,81.3,73.4,30.10,ESE,103,0.0,0.0,77,0.00,,,0.00,Wunderground v.1.15,2013-05-29 23:25:00,
2013-05-29 19:30:00,81.1,73.6,30.10,ESE,103,0.0,0.0,78,0.00,,,0.00,Wunderground v.1.15,2013-05-29 23:30:00,
2013-05-29 19:40:00,80.9,73.4,30.11,ESE,103,0.0,0.0,78,0.00,,,0.00,Wunderground v.1.15,2013-05-29 23:40:00,
2013-05-29 19:50:00,80.6,73.5,30.10,ESE,103,0.0,0.0,79,0.00,,,0.00,Wunderground v.1.15,2013-05-29 23:50:00,
2013-05-29 20:00:00,80.2,73.5,30.11,ESE,103,0.0,0.0,80,0.00,,,0.00,Wunderground v.1.15,2013-05-30 00:00:00,
2013-05-29 20:10:00,80.0,73.6,30.11,ESE,103,0.0,0.0,81,0.00,,,0.00,Wunderground v.1.15,2013-05-30 00:10:00,
2013-05-29 20:15:00,79.8,73.1,30.11,ESE,103,0.0,0.0,80,0.00,,,0.00,Wunderground v.1.15,2013-05-30 00:15:00,
2013-05-29 20:25:00,79.6,73.3,30.11,ESE,103,0.0,0.0,81,0.00,,,0.00,Wunderground v.1.15,2013-05-30 00:25:00,
2013-05-29 20:35:00,79.4,73.4,30.11,East,95,0.0,0.0,82,0.00,,,0.00,Wunderground v.1.15,2013-05-30 00:35:00,
2013-05-29 20:45:00,79.2,72.9,30.11,East,95,0.0,0.0,81,0.00,,,0.00,Wunderground v.1.15,2013-05-30 00:45:00,
2013-05-29 20:55:00,79.1,73.1,30.11,East,95,0.0,0.0,82,0.00,,,0.00,Wunderground v.1.15,2013-05-30 00:55:00,
2013-05-29 21:05:00,78.9,73.3,30.11,East,95,0.0,0.0,83,0.00,,,0.00,Wunderground v.1.15,2013-05-30 01:05:00,
2013-05-29 21:15:00,78.8,73.6,30.11,East,95,0.0,0.0,84,0.00,,,0.00,Wunderground v.1.15,2013-05-30 01:15:00,
2013-05-29 21:25:00,78.7,73.5,30.12,East,95,0.0,0.0,84,0.00,,,0.00,Wunderground v.1.15,2013-05-30 01:25:00,
2013-05-29 21:35:00,78.4,73.2,30.12,East,95,0.0,0.0,84,0.00,,,0.00,Wunderground v.1.15,2013-05-30 01:35:00,
2013-05-29 21:45:00,78.2,73.3,30.12,East,95,0.0,0.0,85,0.00,,,0.00,Wunderground v.1.15,2013-05-30 01:45:00,
2013-05-29 21:55:00,78.1,73.6,30.12,East,95,0.0,0.0,86,0.00,,,0.00,Wunderground v.1.15,2013-05-30 01:55:00,
2013-05-29 22:00:00,78.0,73.5,30.12,East,95,0.0,0.0,86,0.00,,,0.00,Wunderground v.1.15,2013-05-30 02:00:00,
2013-05-29 22:05:00,77.8,73.3,30.12,East,95,0.0,0.0,86,0.00,,,0.00,Wunderground v.1.15,2013-05-30 02:05:00,
2013-05-29 22:15:00,77.7,73.2,30.13,East,95,0.0,0.0,86,0.00,,,0.00,Wunderground v.1.15,2013-05-30 02:15:00,
2013-05-29 22:20:00,77.6,73.4,30.13,East,95,0.0,0.0,87,0.00,,,0.00,Wunderground v.1.15,2013-05-30 02:20:00,
2013-05-29 22:30:00,77.5,73.0,30.13,East,95,0.0,0.0,86,0.00,,,0.00,Wunderground v.1.15,2013-05-30 02:30:00,
2013-05-29 22:35:00,77.5,73.3,30.13,East,95,0.0,0.0,87,0.00,,,0.00,Wunderground v.1.15,2013-05-30 02:35:00,
2013-05-29 22:45:00,77.4,73.2,30.14,East,95,0.0,0.0,87,0.00,,,0.00,Wunderground v.1.15,2013-05-30 02:45:00,
2013-05-29 22:50:00,77.4,73.2,30.14,East,95,0.0,0.0,87,0.00,,,0.00,Wunderground v.1.15,2013-05-30 02:50:00,
2013-05-29 23:00:00,77.3,73.1,30.14,East,95,0.0,0.0,87,0.00,,,0.00,Wunderground v.1.15,2013-05-30 03:00:00,
2013-05-29 23:05:00,77.2,73.0,30.14,East,95,0.0,0.0,87,0.00,,,0.00,Wunderground v.1.15,2013-05-30 03:05:00,
2013-05-29 23:15:00,77.1,72.9,30.14,East,95,0.0,0.0,87,0.00,,,0.00,Wunderground v.1.15,2013-05-30 03:15:00,
2013-05-29 23:25:00,77.1,72.9,30.14,East,95,0.0,0.0,87,0.00,,,0.00,Wunderground v.1.15,2013-05-30 03:25:00,
2013-05-29 23:35:00,76.9,73.1,30.13,East,95,0.0,0.0,88,0.00,,,0.00,Wunderground v.1.15,2013-05-30 03:35:00,
2013-05-29 23:45:00,76.9,73.1,30.13,East,95,0.0,0.0,88,0.00,,,0.00,Wunderground v.1.15,2013-05-30 03:45:00,
2013-05-29 23:55:00,76.8,73.0,30.13,East,95,0.0,0.0,88,0.00,,,0.00,Wunderground v.1.15,2013-05-30 03:55:00,